Weather History for Fremont, NE

Change the Weather History Date:

Wednesday, March 14, 2012

  Actual Average Record
Temperature  
Mean Temperature 68 °F -  
Max Temperature 82 °F 49 °F 82 °F (2012)
Min Temperature 54 °F 27 °F 4 °F (1975)
Cooling Degree Days 3    
Growing Degree Days 18 (Base 50)    
Moisture  
Dew Point 45 °F    
Average Humidity 54    
Maximum Humidity 94    
Minimum Humidity 13    
Precipitation  
Precipitation 0.00 in - - ()
Sea Level Pressure  
Sea Level Pressure 29.80 in    
Wind  
Wind Speed 10 mph (SSW)    
Max Wind Speed 17 mph    
Max Gust Speed 24 mph    
Visibility 10 miles    
Events      
Averages and records for this station are not official NWS values.
T = Trace of Precipitation, MM = Missing Value Source: NWS Daily Summary

Daily Weather History Graph

Daily Weather History Graph

Search for Another Location

Airport:

Trip Planner

Search our weather history database for the weather conditions in past years. The results will help you decide how hot, cold, wet, or windy it might be!

Date:

Astronomy

Mar. 14, 2012 Rise Set
Actual Time 7:38 AM CDT 7:32 PM CDT
Civil Twilight 7:11 AM CDT 7:59 PM CDT
Nautical Twilight 6:38 AM CDT 8:31 PM CDT
Astronomical Twilight 6:06 AM CDT 9:04 PM CDT
Moon 2:13 AM CDT (3/14) 11:46 AM CDT (3/14)
Length of Visible Light 12h 48m
Length of Day
11h 53m
Waning Gibbous, 54% of the Moon is Illuminated
Mar 14
Waning Gibbous
Mar 14
Last Quarter
Mar 22
New
Mar 30
First Quarter
Apr 6
Full

Hourly Weather History & Observations

Time (CDT) Temp. Dew Point Humidity Pressure Visibility Wind Dir Wind Speed Gust Speed Precip Events Conditions
12:15 AM 63.3 °F 47.8 °F 57% 29.76 in 10.0 mi SSE 16.1 mph 19.6 mph N/A   Clear
12:35 AM 64.0 °F 46.6 °F 53% 29.76 in 10.0 mi South 16.1 mph 23.0 mph N/A   Clear
12:55 AM 64.0 °F 46.2 °F 52% 29.76 in 10.0 mi South 15.0 mph 23.0 mph N/A   Clear
1:15 AM 63.0 °F 46.0 °F 54% 29.76 in 10.0 mi South 16.1 mph - N/A   Clear
1:35 AM 61.9 °F 45.9 °F 56% 29.75 in 10.0 mi South 13.8 mph 20.7 mph N/A   Clear
1:55 AM 61.9 °F 45.9 °F 56% 29.75 in 10.0 mi South 15.0 mph 21.9 mph N/A   Clear
2:15 AM 61.7 °F 46.4 °F 57% 29.75 in 10.0 mi South 15.0 mph 19.6 mph N/A   Clear
2:35 AM 61.7 °F 47.3 °F 59% 29.74 in 10.0 mi South 15.0 mph 21.9 mph N/A   Clear
2:55 AM 61.2 °F 48.4 °F 63% 29.74 in 10.0 mi South 16.1 mph 19.6 mph N/A   Clear
3:15 AM 61.2 °F 49.6 °F 66% 29.74 in 10.0 mi South 17.3 mph 23.0 mph N/A   Clear
3:35 AM 61.0 °F 50.5 °F 68% 29.74 in 10.0 mi South 16.1 mph 21.9 mph N/A   Clear
3:55 AM 61.2 °F 51.8 °F 71% 29.74 in 10.0 mi South 15.0 mph 24.2 mph N/A   Clear
4:15 AM 61.3 °F 52.9 °F 74% 29.74 in 10.0 mi South 13.8 mph 23.0 mph N/A   Clear
4:35 AM 60.8 °F 53.4 °F 77% 29.74 in 10.0 mi South 10.4 mph 19.6 mph N/A   Clear
4:55 AM 60.8 °F 53.8 °F 78% 29.75 in 10.0 mi SSW 5.8 mph - N/A   Clear
5:15 AM 60.1 °F 53.8 °F 80% 29.75 in 10.0 mi SSW 3.5 mph - N/A   Clear
5:35 AM 59.0 °F 53.6 °F 82% 29.76 in 10.0 mi Calm Calm - N/A   Clear
5:55 AM 57.9 °F 53.8 °F 86% 29.77 in 10.0 mi South 4.6 mph - N/A   Clear
6:15 AM 58.3 °F 54.1 °F 86% 29.77 in 10.0 mi South 4.6 mph - N/A   Clear
6:35 AM 57.4 °F 53.8 °F 88% 29.78 in 10.0 mi South 4.6 mph - N/A   Clear
6:55 AM 56.3 °F 53.4 °F 90% 29.78 in 10.0 mi South 4.6 mph - N/A   Clear
7:15 AM 55.8 °F 53.2 °F 91% 29.78 in 10.0 mi South 3.5 mph - N/A   Clear
7:35 AM 54.7 °F 52.3 °F 92% 29.78 in 7.0 mi SSE 4.6 mph - N/A   Clear
7:55 AM 55.2 °F 53.2 °F 93% 29.79 in 7.0 mi SSE 3.5 mph - N/A   Clear
8:15 AM 55.6 °F 53.8 °F 94% 29.80 in 5.0 mi South 4.6 mph - N/A   Clear
8:35 AM 57.2 °F 55.0 °F 92% 29.80 in 7.0 mi South 3.5 mph - N/A   Clear
8:55 AM 59.0 °F 56.1 °F 90% 29.81 in 7.0 mi South 3.5 mph - N/A   Clear
9:15 AM 60.3 °F 56.8 °F 88% 29.81 in 10.0 mi SSW 6.9 mph - N/A   Mostly Cloudy
9:35 AM 60.4 °F 56.7 °F 87% 29.82 in 7.0 mi SSW 6.9 mph - N/A   Overcast
9:55 AM 60.6 °F 56.7 °F 87% 29.83 in 7.0 mi SW 8.1 mph - N/A   Overcast
10:15 AM 61.3 °F 56.1 °F 83% 29.83 in 10.0 mi SW 6.9 mph - N/A   Overcast
10:35 AM 62.1 °F 55.0 °F 78% 29.84 in 10.0 mi SW 6.9 mph - N/A   Scattered Clouds
10:55 AM 63.7 °F 53.8 °F 70% 29.85 in 10.0 mi West 6.9 mph - N/A   Clear
11:15 AM 64.8 °F 52.9 °F 65% 29.85 in 10.0 mi WSW 4.6 mph - N/A   Clear
11:35 AM 66.2 °F 50.9 °F 58% 29.84 in 10.0 mi SW 5.8 mph - N/A   Clear
11:55 AM 68.7 °F 46.8 °F 45% 29.84 in 10.0 mi Calm Calm - N/A   Clear
12:15 PM 70.0 °F 43.7 °F 39% 29.84 in 10.0 mi WNW 4.6 mph - N/A   Clear
12:35 PM 71.6 °F 41.5 °F 34% 29.84 in 10.0 mi Calm Calm - N/A   Clear
12:55 PM 73.0 °F 40.5 °F 31% 29.84 in 10.0 mi ENE 3.5 mph - N/A   Clear
1:15 PM 74.1 °F 39.9 °F 29% 29.84 in 10.0 mi Calm Calm - N/A   Clear
1:35 PM 75.9 °F 38.3 °F 26% 29.84 in 10.0 mi Calm Calm - N/A   Clear
1:55 PM 77.2 °F 37.4 °F 24% 29.83 in 10.0 mi ENE 3.5 mph - N/A   Clear
2:15 PM 77.9 °F 35.8 °F 22% 29.82 in 10.0 mi Calm Calm - N/A   Clear
2:35 PM 78.6 °F 34.7 °F 20% 29.82 in 10.0 mi Calm Calm - N/A   Clear
2:55 PM 79.7 °F 34.3 °F 19% 29.81 in 10.0 mi Calm Calm - N/A   Clear
3:15 PM 79.3 °F 38.5 °F 23% 29.81 in 10.0 mi South 3.5 mph - N/A   Clear
3:35 PM 80.2 °F 38.1 °F 22% 29.81 in 10.0 mi SSE 4.6 mph - N/A   Clear
3:55 PM 80.4 °F 32.0 °F 17% 29.82 in 10.0 mi Calm Calm - N/A   Clear
4:15 PM 80.8 °F 32.0 °F 17% 29.82 in 10.0 mi SW 3.5 mph - N/A   Clear
4:35 PM 82.0 °F 27.7 °F 14% 29.82 in 10.0 mi WNW 5.8 mph - N/A   Clear
4:55 PM 81.9 °F 26.4 °F 13% 29.83 in 10.0 mi West 6.9 mph - N/A   Clear
5:15 PM 82.0 °F 28.4 °F 14% 29.83 in 10.0 mi NNW 6.9 mph - N/A   Clear
5:35 PM 80.2 °F 28.0 °F 15% 29.84 in 10.0 mi North 9.2 mph 16.1 mph N/A   Clear
5:55 PM 78.8 °F 28.9 °F 16% 29.84 in 10.0 mi NNW 12.7 mph - N/A   Clear
6:15 PM 77.4 °F 29.5 °F 17% 29.85 in 10.0 mi NW 12.7 mph - N/A   Clear
6:35 PM 74.1 °F 32.0 °F 21% 29.86 in 10.0 mi NW 9.2 mph - N/A   Clear
6:55 PM 72.1 °F 32.2 °F 23% 29.86 in 10.0 mi NNW 5.8 mph - N/A   Clear
7:15 PM 70.0 °F 32.9 °F 25% 29.87 in 10.0 mi NNW 8.1 mph - N/A   Clear
7:35 PM 68.2 °F 33.4 °F 28% 29.88 in 10.0 mi NNW 5.8 mph - N/A   Clear
7:55 PM 64.6 °F 33.8 °F 32% 29.88 in 10.0 mi NNW 4.6 mph - N/A   Clear
8:15 PM 61.5 °F 34.9 °F 37% 29.89 in 10.0 mi NW 3.5 mph - N/A   Clear
8:35 PM 60.8 °F 34.5 °F 37% 29.90 in 10.0 mi Calm Calm - N/A   Clear
8:55 PM 59.0 °F 34.9 °F 40% 29.90 in 10.0 mi NNW 4.6 mph - N/A   Clear
9:15 PM 57.6 °F 35.1 °F 43% 29.91 in 10.0 mi NW 3.5 mph - N/A   Clear
9:35 PM 55.6 °F 36.0 °F 48% 29.92 in 10.0 mi Calm Calm - N/A   Clear
9:55 PM 54.9 °F 35.8 °F 49% 29.93 in 10.0 mi WNW 3.5 mph - N/A   Clear
10:15 PM 52.7 °F 36.1 °F 53% 29.93 in 10.0 mi Calm Calm - N/A   Clear
10:35 PM 53.2 °F 36.0 °F 52% 29.94 in 10.0 mi Calm Calm - N/A   Clear
10:55 PM 53.2 °F 36.1 °F 52% 29.94 in 10.0 mi West 3.5 mph - N/A   Clear
11:15 PM 51.4 °F 36.1 °F 56% 29.95 in 10.0 mi WNW 3.5 mph - N/A   Clear
11:35 PM 50.0 °F 36.3 °F 59% 29.96 in 10.0 mi West 3.5 mph - N/A   Clear
11:55 PM 48.9 °F 36.3 °F 62% 29.96 in 10.0 mi WNW 5.8 mph - N/A   Clear